Location: Newark
(37.9800°N, 91.3000°W)
Time: 00:42:23
(UTC+00:00)

Envisat - Pass Details

Date: 27 October 2019
Orbit: 764 x 766 km, 98.1° (Epoch: 14 November)

Event Time Altitude Azimuth Distance (km) Brightness Sun altitude
Rises 01:25:34 0° 209° (SSW) 3,218 6.5 -26.7°
Reaches altitude 10° 01:28:44 10° 230° (SW) 2,297 6.0 -27.3°
Maximum altitude 01:31:51 16° 268° (W) 1,899 5.8 -27.9°
Drops below altitude 10° 01:34:59 10° 306° (NW) 2,307 6.2 -28.5°
Sets 01:38:11 0° 328° (NNW) 3,238 6.8 -29.1°
